Tracking 18980 objects as of 18-Feb-2018
HD Live streaming from Space Station
objects crossing your sky now

GORIZONT 30

Track GORIZONT 30 now!
GORIZONT 30 is classified as:


NORAD ID: 23108
Int'l Code: 1994-030A
Perigee: 35,758.4 km
Apogee: 35,810.0 km
Inclination: 14.8 °
Period: 1,435.6 minutes
Semi major axis: 42155 km
RCS: 12.5892 m2 (large)
Launch date: May 20, 1994
Source: Commonwealth of Independent States (former USSR) (CIS)
Launch site: TYURATAM MISSILE AND SPACE COMPLEX (TTMTR)
aabbcc
Your satellite tracking list
Your tracking list is empty




NASA's NSSDC Master Catalog

Two Line Element Set (TLE):
1 23108U 94030A   18048.55586596 +.00000063 +00000-0 +00000-0 0  9999
2 23108 014.7703 013.9514 0006123 260.4457 258.9537 01.00305828086977
Source of the keplerian elements: AFSPC